THA436 WIII-VTBS

Flight info

Callsign THA436
Flight time N/A
Altitude 40000
Route DOLTA G579 SJ B469 VPK M751 VKB M644 ALUMO Y12 ALEMI TUMGA1C
Aircraft A359/H-SDE2E3GHIJ3J4J5LM1ORWXY/LB1D1

Departure

Time N/A
Airport Soekarno-Hatta International Airport (WIII)

Arrival

Time 2026-05-01 14:32
Airport Suvarnabhumi Airport (VTBS)
Time Latitude Longitude Altitude Speed Heading
2026-05-01 14:02 11.44160 101.70166 39907 ft 482 kts 345°
2026-05-01 14:02 11.50703 101.68666 39908 ft 482 kts 345°
2026-05-01 14:03 11.57259 101.67162 39912 ft 483 kts 345°
2026-05-01 14:03 11.63812 101.65658 39911 ft 483 kts 345°
2026-05-01 14:04 11.70374 101.64152 39905 ft 483 kts 345°
2026-05-01 14:04 11.76895 101.62654 39908 ft 484 kts 345°
2026-05-01 14:05 11.83460 101.61145 39912 ft 484 kts 345°
2026-05-01 14:05 11.90033 101.59634 39910 ft 484 kts 345°
2026-05-01 14:06 11.96608 101.58121 39906 ft 484 kts 345°
2026-05-01 14:06 12.03187 101.56607 39909 ft 485 kts 345°
2026-05-01 14:07 12.09774 101.55090 39910 ft 485 kts 345°
2026-05-01 14:08 12.19654 101.52813 39910 ft 485 kts 345°
2026-05-01 14:08 12.26241 101.51295 39886 ft 485 kts 344°
2026-05-01 14:08 12.29525 101.50537 39654 ft 484 kts 344°
2026-05-01 14:09 12.32816 101.49778 39418 ft 485 kts 344°
2026-05-01 14:09 12.36106 101.49019 39088 ft 484 kts 345°
2026-05-01 14:09 12.39393 101.48260 38522 ft 483 kts 345°
2026-05-01 14:09 12.42635 101.47511 37808 ft 484 kts 345°
2026-05-01 14:10 12.45927 101.46750 37135 ft 484 kts 345°
2026-05-01 14:10 12.49214 101.45990 36460 ft 484 kts 345°
2026-05-01 14:10 12.51695 101.45417 35940 ft 485 kts 345°
2026-05-01 14:10 12.54449 101.44780 35348 ft 486 kts 345°
2026-05-01 14:11 12.57756 101.44015 34623 ft 488 kts 345°
2026-05-01 14:11 12.64402 101.42342 32719 ft 497 kts 341°
2026-05-01 14:11 12.67707 101.41271 31758 ft 501 kts 341°
2026-05-01 14:12 12.71038 101.40192 30825 ft 503 kts 341°
2026-05-01 14:12 12.74388 101.39126 29860 ft 505 kts 342°
2026-05-01 14:12 12.77756 101.38065 28983 ft 504 kts 342°
2026-05-01 14:12 12.81096 101.37021 28253 ft 499 kts 342°
2026-05-01 14:13 12.84398 101.35992 27555 ft 494 kts 342°
2026-05-01 14:13 12.86571 101.35315 27083 ft 491 kts 342°
2026-05-01 14:13 12.90921 101.33962 26175 ft 486 kts 342°
2026-05-01 14:13 12.94119 101.32928 25699 ft 477 kts 339°
2026-05-01 14:14 12.97103 101.31586 25690 ft 476 kts 332°
2026-05-01 14:14 12.99886 101.29784 25489 ft 469 kts 323°
2026-05-01 14:14 13.02423 101.27697 24764 ft 468 kts 319°
2026-05-01 14:14 13.04893 101.25523 24074 ft 467 kts 319°
2026-05-01 14:15 13.07355 101.23341 23377 ft 465 kts 319°
2026-05-01 14:15 13.09794 101.21180 22629 ft 462 kts 319°
2026-05-01 14:15 13.12220 101.19032 21947 ft 456 kts 319°
2026-05-01 14:15 13.14610 101.16915 21282 ft 452 kts 319°
2026-05-01 14:16 13.16984 101.14811 20621 ft 448 kts 319°
2026-05-01 14:16 13.19341 101.12723 19945 ft 445 kts 319°
2026-05-01 14:16 13.21671 101.10659 19269 ft 442 kts 319°
2026-05-01 14:16 13.23991 101.08602 18592 ft 439 kts 318°
2026-05-01 14:17 13.26273 101.06578 17875 ft 436 kts 318°
2026-05-01 14:17 13.28560 101.04550 17150 ft 433 kts 318°
2026-05-01 14:17 13.30828 101.02538 16442 ft 428 kts 318°
2026-05-01 14:17 13.33066 101.00552 15757 ft 424 kts 318°
2026-05-01 14:18 13.35292 100.98576 15072 ft 421 kts 318°
2026-05-01 14:18 13.36754 100.97278 14617 ft 419 kts 318°
2026-05-01 14:18 13.38379 100.95837 14132 ft 416 kts 318°
2026-05-01 14:19 13.41487 100.93611 13912 ft 413 kts 330°
2026-05-01 14:19 13.44040 100.92226 13699 ft 416 kts 332°
2026-05-01 14:19 13.46627 100.90901 13437 ft 415 kts 333°
2026-05-01 14:19 13.49214 100.89595 13175 ft 413 kts 333°
2026-05-01 14:20 13.51781 100.88308 12575 ft 409 kts 333°
2026-05-01 14:20 13.56849 100.85775 11162 ft 401 kts 333°
2026-05-01 14:20 13.59347 100.84528 10656 ft 393 kts 333°
2026-05-01 14:21 13.61844 100.83549 10360 ft 379 kts 347°
2026-05-01 14:21 13.64423 100.83464 10104 ft 366 kts
2026-05-01 14:21 13.66847 100.84042 9880 ft 351 kts 15°
2026-05-01 14:22 13.71236 100.85288 9000 ft 309 kts 15°
2026-05-01 14:22 13.73272 100.85858 8468 ft 295 kts 15°
2026-05-01 14:22 13.75187 100.86390 8145 ft 277 kts 15°
2026-05-01 14:22 13.77017 100.86895 7672 ft 268 kts 15°
2026-05-01 14:23 13.78802 100.87387 7119 ft 264 kts 15°
2026-05-01 14:23 13.80566 100.87872 6569 ft 261 kts 15°
2026-05-01 14:23 13.82312 100.88352 5997 ft 258 kts 15°
2026-05-01 14:23 13.84021 100.88822 5428 ft 256 kts 15°
2026-05-01 14:24 13.85738 100.89296 4889 ft 254 kts 15°
2026-05-01 14:24 13.87440 100.89761 4350 ft 252 kts 15°
2026-05-01 14:24 13.89145 100.90227 4052 ft 253 kts 15°
2026-05-01 14:24 13.90836 100.90689 3816 ft 250 kts 15°
2026-05-01 14:25 13.92527 100.91120 3654 ft 250 kts
2026-05-01 14:25 13.94250 100.91120 3486 ft 248 kts 348°
2026-05-01 14:25 13.95788 100.90383 3325 ft 244 kts 317°
2026-05-01 14:25 13.96701 100.88967 3221 ft 238 kts 283°
2026-05-01 14:26 13.96686 100.87317 3105 ft 231 kts 247°
2026-05-01 14:26 13.95074 100.84518 2809 ft 229 kts 233°
2026-05-01 14:26 13.94130 100.83205 2655 ft 228 kts 220°
2026-05-01 14:27 13.92787 100.82398 2546 ft 223 kts 199°
2026-05-01 14:27 13.91300 100.81943 2505 ft 223 kts 193°
2026-05-01 14:27 13.89792 100.81559 2503 ft 223 kts 193°
2026-05-01 14:28 13.86780 100.80769 2502 ft 223 kts 193°
2026-05-01 14:28 13.85308 100.80375 2500 ft 212 kts 194°
2026-05-01 14:28 13.83953 100.80012 2517 ft 195 kts 194°
2026-05-01 14:28 13.82696 100.79676 2533 ft 179 kts 193°
2026-05-01 14:29 13.81492 100.79358 2396 ft 178 kts 193°
2026-05-01 14:29 13.80299 100.79045 2164 ft 175 kts 193°
2026-05-01 14:30 13.76865 100.78138 1497 ft 164 kts 193°
2026-05-01 14:30 13.75799 100.77857 1293 ft 152 kts 194°
2026-05-01 14:30 13.74829 100.77599 1096 ft 140 kts 193°
2026-05-01 14:31 13.73127 100.77161 808 ft 133 kts 194°
2026-05-01 14:31 13.72231 100.76915 649 ft 132 kts 195°
2026-05-01 14:31 13.71348 100.76682 493 ft 132 kts 195°
2026-05-01 14:31 13.70459 100.76449 329 ft 131 kts 194°
2026-05-01 14:32 13.69589 100.76217 151 ft 128 kts 194°
2026-05-01 14:32 13.68738 100.75990 27 ft 122 kts 194°
2026-05-01 14:32 13.68032 100.75805 18 ft 84 kts 194°
2026-05-01 14:32 13.67601 100.75691 17 ft 44 kts 194°
2026-05-01 14:33 13.67337 100.75621 20 ft 33 kts 197°
2026-05-01 14:33 13.67162 100.75514 19 ft 23 kts 221°
2026-05-01 14:33 13.67091 100.75415 19 ft 13 kts 272°
2026-05-01 14:33 13.67153 100.75384 19 ft 11 kts 10°
2026-05-01 14:34 13.67237 100.75405 19 ft 14 kts 14°
2026-05-01 14:34 13.67342 100.75433 19 ft 17 kts 14°
2026-05-01 14:34 13.67469 100.75466 19 ft 19 kts 14°
2026-05-01 14:34 13.67600 100.75500 19 ft 20 kts 14°
2026-05-01 14:35 13.67739 100.75537 19 ft 21 kts 15°
2026-05-01 14:35 13.67884 100.75575 19 ft 23 kts 14°
2026-05-01 14:35 13.68046 100.75618 19 ft 25 kts 14°
2026-05-01 14:35 13.68188 100.75654 19 ft 14 kts 14°
2026-05-01 14:36 13.68282 100.75677 19 ft 10 kts
2026-05-01 14:36 13.68321 100.75629 19 ft 10 kts 285°
2026-05-01 14:36 13.68338 100.75557 19 ft 10 kts 284°
2026-05-01 14:36 13.68358 100.75482 19 ft 12 kts 284°
2026-05-01 14:37 13.68381 100.75389 19 ft 14 kts 283°
2026-05-01 14:37 13.68404 100.75299 19 ft 14 kts 284°
2026-05-01 14:37 13.68430 100.75195 19 ft 16 kts 284°
2026-05-01 14:37 13.68444 100.75109 21 ft 10 kts 255°
2026-05-01 14:38 13.68390 100.75086 19 ft 9 kts 169°
2026-05-01 14:38 13.68339 100.75105 19 ft 7 kts 178°
2026-05-01 14:38 13.68296 100.75097 19 ft 6 kts 193°
2026-05-01 14:38 13.68267 100.75090 19 ft 2 kts 194°
2026-05-01 14:39 13.68261 100.75088 19 ft 0 kts 194°